Theta_e
307 307 307 307 307 306 314 317 321 314 314 320 319 320 317 309 315 315 316 316 316 316 316 316 316 316 316 314 314 315 316 316 318 317 318 320 323 326 327 333 335 332 333 333
308 308 307 307 307 306 310 319 318 314 316 321 318 316 315 315 316 314 314 315 314 315 315 315 315 314 314 313 314 315 317 317 318 316 316 317 321 325 328 327 331 335 334 334
308 308 307 307 307 306 309 319 321 317 316 316 317 317 316 316 313 313 313 314 313 314 314 313 314 314 313 312 312 314 314 316 318 318 318 318 320 319 325 328 331 331 334 333
308 308 308 307 307 308 311 317 316 315 317 316 316 315 314 314 315 313 312 313 312 313 314 313 313 313 312 312 312 312 313 315 316 316 316 316 316 319 322 328 329 332 331 333
308 308 308 307 308 311 315 319 317 315 315 315 316 312 315 313 312 313 312 312 311 312 312 311 312 311 311 311 312 314 313 316 316 316 316 316 316 315 316 318 321 324 329 331
308 308 308 307 310 311 315 313 313 315 312 315 315 314 313 312 312 311 311 311 311 312 311 310 311 311 311 310 311 312 315 317 317 318 315 315 316 316 315 316 317 320 325 329
308 308 308 308 310 312 313 313 314 316 315 315 315 312 312 312 312 312 311 311 312 311 311 311 312 312 311 311 311 311 312 315 316 320 316 318 315 316 318 320 318 318 320 322
308 308 308 308 308 311 313 312 314 316 317 315 314 313 312 311 311 311 311 311 311 311 312 314 314 315 314 313 312 312 311 311 317 318 316 315 314 322 323 324 321 327 320 320
308 308 308 308 308 311 313 312 313 315 319 316 313 314 312 312 313 313 311 311 311 311 313 314 317 317 315 316 315 314 312 312 313 314 317 316 321 319 318 321 323 325 325 325
308 308 308 308 308 311 312 313 313 314 317 315 314 314 313 311 312 314 312 312 312 312 312 316 318 317 316 317 316 316 317 317 316 315 315 313 317 317 316 323 323 320 319 321
308 308 308 308 308 310 313 313 313 314 317 315 314 312 312 311 313 314 314 314 313 312 313 316 315 316 315 315 315 315 315 318 320 318 316 315 315 316 317 320 319 317 317 316
308 308 308 308 308 308 312 315 312 312 315 316 313 313 311 311 311 313 313 313 313 312 313 314 314 314 314 314 318 312 316 313 316 316 315 313 315 315 315 315 316 315 316 316
308 308 308 308 308 308 311 315 313 313 317 316 316 316 312 312 311 311 313 313 312 313 312 312 314 314 312 315 313 312 312 309 312 313 312 314 314 314 314 313 313 313 314 315
308 309 308 308 308 308 311 315 314 314 316 318 318 314 314 312 312 312 311 311 311 312 312 312 314 314 312 312 312 311 310 308 311 312 312 311 312 310 310 310 311 312 312 314
309 309 308 308 308 309 310 314 314 314 315 320 318 316 315 313 313 312 312 312 312 312 315 313 313 311 310 310 311 311 306 306 309 310 306 306 307 308 308 309 310 311 312 314
310 309 309 309 309 309 313 318 315 314 314 317 320 318 316 313 313 313 312 312 312 312 311 311 310 310 311 313 312 310 308 306 306 307 306 306 306 307 307 307 308 309 310 312
309 309 309 309 309 311 314 316 313 311 313 315 320 319 318 315 314 312 311 312 313 312 313 312 311 312 310 312 313 310 309 307 307 306 306 306 305 306 305 305 307 308 310 312
310 309 309 309 310 310 313 314 310 309 312 314 319 320 320 316 316 315 307 311 311 314 314 313 311 314 312 313 311 309 310 309 308 307 306 306 304 304 303 303 304 307 309 312
309 309 309 311 311 315 315 311 309 310 312 316 317 324 319 318 317 312 309 309 314 313 316 315 313 314 312 313 310 309 309 309 309 306 306 306 306 303 302 302 303 304 307 308
309 310 313 317 316 312 310 311 314 313 314 313 317 319 317 319 319 316 314 311 315 318 316 313 316 316 312 309 309 309 308 308 308 308 307 306 306 304 303 302 303 303 304 306
314 319 320 314 311 312 313 317 319 320 319 319 319 319 317 317 321 321 316 317 316 318 317 314 315 315 310 309 308 308 308 307 307 307 307 306 306 306 305 304 302 302 303 304
318 319 317 314 314 317 321 324 323 323 322 322 322 318 318 317 318 320 319 317 317 317 313 313 316 314 310 310 309 307 309 308 307 307 307 306 306 306 306 306 304 302 302 303
318 318 319 320 324 323 324 322 322 323 322 318 317 319 319 320 318 319 318 318 318 314 315 317 314 312 311 310 309 308 308 307 307 306 306 305 305 306 306 305 306 304 303 303
323 324 325 326 325 323 324 322 326 322 320 318 317 318 323 318 317 317 318 317 313 314 316 314 314 313 311 308 309 308 308 308 307 306 306 305 305 305 305 305 304 305 306 305
324 324 328 324 323 323 324 322 324 321 318 314 316 320 316 316 316 314 313 312 314 315 314 312 313 312 309 308 308 308 308 307 306 305 305 305 305 304 305 304 304 304 305 304
324 324 324 322 325 323 323 321 321 317 317 317 315 316 315 315 314 313 312 313 314 315 312 312 311 311 310 309 308 308 307 306 306 305 305 305 304 304 304 304 304 304 304 305
325 325 323 324 324 323 324 321 320 317 316 317 315 315 315 314 314 314 314 315 313 311 311 311 311 310 309 308 307 307 306 307 306 305 305 304 304 304 304 305 305 304 305 305
Wind_Speed
24 24 26 26 29 33 9 6 4 14 8 6 3 5 5 3 4 2 2 3 5 5 6 8 12 10 3 7 9 13 10 9 14 20 16 20 24 19 27 15 21 20 16 13
23 23 24 24 25 24 14 3 5 12 12 2 6 6 8 6 4 6 4 2 4 4 8 4 7 7 8 7 10 7 11 10 13 17 15 18 17 19 19 24 22 21 18 16
21 22 22 22 22 18 10 4 1 5 7 6 6 5 5 4 5 3 4 5 4 6 7 5 6 6 5 7 12 10 9 14 18 15 6 12 12 24 22 19 17 22 19 19
20 20 20 20 18 11 9 5 5 5 6 7 7 6 1 3 4 3 2 4 5 6 5 4 6 7 10 6 13 10 12 18 19 19 19 16 14 15 13 16 18 19 18 19
18 17 17 18 14 13 3 3 2 4 5 2 4 3 7 6 5 2 6 2 2 6 6 9 14 14 12 10 4 10 14 12 17 19 19 16 19 17 18 19 20 22 22 19
15 14 14 15 13 13 6 6 3 3 1 3 3 8 7 6 4 4 3 2 9 7 7 8 13 14 14 14 12 11 6 8 11 17 18 20 22 23 20 21 22 21 21 18
12 11 11 12 10 14 8 8 4 5 4 6 7 4 2 4 3 4 4 5 9 5 12 15 17 19 19 19 18 16 15 11 5 11 13 16 14 7 10 14 16 23 21 21
9 9 8 8 8 12 8 5 5 4 5 4 7 5 6 4 2 6 6 6 7 8 11 9 10 3 8 16 18 19 16 13 6 7 13 15 9 9 5 4 12 20 20 23
7 7 6 5 6 8 6 9 5 4 2 9 6 5 2 1 2 6 3 10 4 8 5 5 6 4 8 4 5 14 17 16 11 11 13 15 9 4 3 3 11 14 14 14
4 4 4 3 4 6 6 5 5 5 3 8 8 5 1 2 2 6 1 7 4 2 3 3 3 3 2 3 6 5 7 11 15 14 13 14 7 7 4 5 2 11 11 14
3 3 2 1 2 4 5 3 2 6 3 7 3 4 2 3 5 5 9 4 1 5 3 4 3 3 3 1 3 8 5 5 9 12 16 19 9 6 8 7 7 10 11 8
1 2 1 1 1 4 1 1 1 3 4 6 2 3 1 1 2 2 5 4 5 4 3 3 3 2 3 6 3 6 3 4 5 6 7 2 1 6 10 12 9 11 13 12
1 1 1 2 2 3 2 5 2 3 4 5 6 5 5 4 4 4 2 4 4 2 3 4 3 2 2 3 2 5 3 7 4 12 12 11 9 11 7 8 10 13 15 12
2 4 3 4 3 2 3 9 2 7 8 3 3 6 6 3 5 3 2 2 4 3 5 3 1 1 5 2 6 1 2 7 5 7 14 17 1 11 12 13 14 16 16 13
3 6 5 4 3 3 6 9 4 4 7 5 0 8 8 7 6 5 4 3 4 2 3 3 1 0 1 3 3 0 2 3 3 4 13 11 12 12 14 13 14 16 16 16
5 6 5 5 4 2 6 3 4 3 4 4 1 4 7 7 5 3 4 4 3 5 3 1 0 1 2 2 2 1 4 4 6 5 10 11 13 13 11 13 15 16 16 16
6 6 5 5 6 4 5 4 3 5 6 3 4 3 4 8 5 2 3 6 4 4 2 3 2 4 4 3 3 5 6 4 4 7 10 9 10 9 13 15 17 16 17 22
7 6 4 4 5 8 8 5 5 3 5 5 3 4 6 11 4 3 1 1 2 4 3 3 4 3 2 2 8 9 3 4 5 4 6 6 11 13 13 18 17 13 12 13
8 5 1 2 4 4 1 4 4 4 4 2 3 3 4 7 3 3 3 2 4 4 3 3 2 2 2 6 6 9 8 5 7 4 8 10 11 14 14 14 15 15 14 12
6 4 4 3 2 5 1 2 3 4 4 4 4 5 6 7 6 5 4 3 3 3 4 2 3 3 5 2 4 5 7 8 7 8 9 10 11 10 11 14 13 11 13 14
4 7 1 4 4 2 3 3 5 5 4 5 5 7 7 3 3 4 5 3 3 3 4 2 2 2 4 5 4 5 5 5 7 6 8 8 9 8 4 7 14 17 16 15
3 4 1 4 3 4 6 5 5 5 3 3 6 2 4 1 1 3 3 3 2 2 3 2 1 2 4 4 8 6 5 8 7 8 7 9 10 11 11 8 5 16 15 14
4 3 3 3 5 3 6 3 1 2 4 1 5 9 5 3 1 2 1 3 4 3 3 2 2 3 5 4 4 8 6 3 7 6 8 9 11 10 10 11 10 9 11 12
4 6 4 5 5 2 1 6 10 7 2 2 3 7 5 3 1 2 3 5 2 1 1 3 4 4 6 4 4 5 6 8 7 10 9 10 11 13 11 10 10 10 8 8
4 2 4 6 8 13 4 3 1 3 2 0 6 4 3 4 1 3 3 2 2 2 1 3 4 5 5 7 7 8 5 4 8 10 10 9 10 11 10 9 7 9 10 12
3 5 10 6 6 7 9 8 7 3 2 5 3 2 1 1 2 2 3 4 3 4 7 7 4 5 5 6 7 7 7 8 5 10 10 9 9 8 9 8 7 7 8 10
4 4 6 7 7 7 2 7 5 3 4 5 2 1 3 3 3 4 5 4 5 5 3 4 6 5 5 7 9 8 5 6 5 9 6 6 7 8 6 7 8 6 9 8
Wind_Direction
346 348 347 348 351 352 350 273 270 1 320 241 345 51 16 318 23 34 28 289 317 292 322 280 278 273 345 67 326 306 312 281 248 248 229 238 244 249 233 239 227 234 252 238
346 348 347 350 352 360 325 350 39 11 297 292 94 125 97 45 28 24 9 13 346 7 306 298 262 293 347 357 296 315 329 236 248 244 261 265 252 246 261 233 252 229 223 234
350 348 347 350 350 353 333 291 200 83 52 27 86 114 39 106 57 68 10 343 301 306 270 222 276 274 333 329 287 17 312 274 279 272 296 343 279 232 244 259 242 238 235 225
352 351 351 351 352 356 325 349 61 337 21 51 67 56 43 66 49 24 6 51 1 10 300 304 267 270 292 261 271 244 250 265 268 278 286 278 280 293 287 255 261 271 260 234
351 355 357 352 4 342 320 13 67 72 82 356 98 165 68 37 9 341 41 68 324 301 285 298 312 304 284 281 265 275 275 257 284 270 267 263 261 246 249 260 262 271 274 276
353 5 2 1 13 357 49 66 52 35 283 50 22 38 35 21 325 26 14 321 295 296 349 308 294 293 288 270 262 263 267 280 283 265 259 250 244 242 239 244 246 248 251 252
1 12 3 8 34 32 60 42 6 84 80 66 59 43 69 15 323 284 235 298 271 345 320 292 267 256 256 257 257 250 243 228 283 279 283 258 250 238 266 266 244 241 250 262
13 9 7 21 55 53 60 56 347 35 72 71 88 36 18 69 256 267 270 249 301 307 287 304 295 274 289 256 245 248 239 245 229 259 262 260 246 45 25 351 229 352 248 230
19 12 21 36 65 80 57 61 25 5 345 45 14 34 77 27 300 210 227 239 317 285 319 296 295 321 7 311 286 250 243 233 248 247 265 256 79 79 19 319 242 13 3 3
24 5 21 43 87 91 18 67 11 300 21 58 19 36 49 220 290 281 307 344 313 328 318 292 306 338 74 327 312 321 271 253 245 230 249 265 62 98 268 238 58 357 353 345
6 352 357 48 103 121 28 66 11 326 351 81 52 104 234 178 283 312 20 278 303 18 288 335 359 327 348 257 270 307 303 263 225 237 247 251 61 310 272 22 319 319 319 318
350 334 313 164 154 137 313 271 304 319 288 44 39 30 105 227 296 310 325 35 18 350 329 358 32 317 321 323 357 339 290 357 317 283 241 189 93 290 303 297 299 305 304 295
173 245 218 187 208 188 284 341 340 288 263 208 187 178 151 155 175 191 290 45 348 338 304 318 5 289 2 326 352 323 351 3 304 315 265 291 325 314 345 349 302 292 284 277
174 175 181 199 224 218 262 294 335 284 290 279 150 142 172 168 147 172 233 291 303 275 293 294 221 282 342 327 314 275 324 303 277 270 293 331 233 349 324 316 295 289 284 273
181 181 192 217 233 281 282 281 260 297 312 319 333 166 164 201 171 196 215 268 304 221 258 210 123 311 260 265 273 13 223 292 301 296 309 290 286 297 308 297 295 287 285 280
202 201 205 231 239 277 291 237 188 253 317 284 261 124 162 184 233 213 301 293 267 287 295 95 2 87 252 252 295 100 59 315 320 283 322 311 314 311 318 310 301 291 279 274
210 213 217 235 239 243 270 334 347 319 304 256 276 151 131 183 184 59 17 317 272 284 221 262 164 196 207 285 330 10 153 245 301 347 345 352 345 331 338 332 323 306 282 262
212 216 226 241 261 275 271 239 263 231 256 267 265 293 154 172 159 177 94 217 322 256 240 246 188 141 10 281 318 343 59 269 258 351 19 45 358 350 360 351 349 360 358 338
200 207 164 189 224 234 192 236 228 217 258 242 220 265 325 174 117 128 165 172 219 243 221 274 105 80 215 268 339 338 14 354 342 41 14 23 38 14 6 3 7 6 359 358
169 181 210 224 178 221 183 195 210 206 206 220 242 261 268 194 162 178 161 189 230 221 234 244 146 233 240 55 339 359 354 7 355 1 18 13 37 47 22 13 8 7 1 354
216 213 53 109 140 239 237 244 223 174 231 206 230 243 293 174 225 200 203 166 240 248 177 210 226 259 58 29 359 350 20 2 6 7 11 28 22 41 53 32 22 12 10 4
348 4 199 134 209 220 245 228 185 204 252 78 287 19 238 340 50 227 172 189 253 269 173 149 277 230 91 28 334 348 12 345 21 7 16 23 23 8 37 61 70 34 17 18
245 220 193 218 194 262 234 256 64 178 154 129 346 318 269 151 5 276 112 235 205 194 151 210 236 104 70 17 347 332 9 330 358 30 28 24 30 41 37 25 85 103 32 13
241 193 246 241 216 228 50 359 323 62 352 353 232 267 6 1 71 256 247 230 242 64 34 352 77 34 46 9 320 333 20 338 5 19 38 40 31 54 58 48 39 40 67 55
254 242 250 234 18 344 347 187 151 46 302 295 281 92 154 205 7 276 335 279 48 214 301 70 94 50 33 359 348 343 28 309 6 9 22 12 36 49 47 61 47 49 51 48
245 246 259 314 335 14 339 15 35 349 357 241 249 121 256 291 340 268 288 11 1 24 335 65 71 32 9 352 340 336 338 339 18 6 5 360 7 20 59 40 49 57 60 61
234 216 85 261 11 23 300 15 25 2 310 9 18 330 35 330 277 14 20 9 345 27 23 47 22 27 331 337 332 327 354 319 13 350 349 354 349 335 29 64 72 52 46 75